timestamp,surface_pressure_avg,surface_temp_avg,battery_voltage,lat,long
2022-01-11 00:09:00+00:00,242.4064,3.1,12.57,47.84626,-54.09684
2022-01-11 00:19:00+00:00,240.4864,3.1,12.57,47.84626,-54.09684
2022-01-11 00:29:00+00:00,248.2365,3.1,12.57,47.84626,-54.09684
2022-01-11 00:39:00+00:00,252.1714,3.1,12.57,47.84626,-54.09684
2022-01-11 00:49:00+00:00,250.6231,3.1,12.57,47.84626,-54.09684
2022-01-11 00:59:00+00:00,251.4948,3.1,12.57,47.84626,-54.09684
2022-01-11 01:09:00+00:00,258.5797,3.1,12.57,47.84626,-54.09684
2022-01-11 01:19:00+00:00,257.6881,3.1,12.49,47.84626,-54.09684
2022-01-11 01:29:00+00:00,257.4264,3.1,12.49,47.84626,-54.09684
2022-01-11 01:39:00+00:00,263.7747,3.1,12.49,47.84626,-54.09684
2022-01-11 01:49:00+00:00,268.6148,3.1,12.49,47.84626,-54.09684
2022-01-11 01:59:00+00:00,263.7198,3.1,12.49,47.84626,-54.09684
2022-01-11 02:09:00+00:00,264.8147,3.1,12.49,47.84626,-54.09684
2022-01-11 02:19:01+00:00,274.2731,3.1,12.49,47.84626,-54.09684
2022-01-11 02:29:01+00:00,273.4147,3.0,12.49,47.84626,-54.09684
2022-01-11 02:39:01+00:00,267.5215,3.0,12.49,47.84626,-54.09684
2022-01-11 02:49:01+00:00,271.7747,3.0,12.49,47.84626,-54.09684
2022-01-11 02:59:01+00:00,280.0297,2.97,12.49,47.84626,-54.09684
2022-01-11 03:09:01+00:00,280.2281,2.9,12.49,47.84626,-54.09684
2022-01-11 03:19:00+00:00,283.9164,2.9,12.49,47.84626,-54.09684
2022-01-11 03:29:00+00:00,292.5114,2.9,12.49,47.84626,-54.09684
2022-01-11 03:39:00+00:00,299.283,2.9,12.49,47.84626,-54.09684
2022-01-11 03:49:00+00:00,300.4247,2.93,12.49,47.84626,-54.09684
2022-01-11 03:59:00+00:00,310.163,2.97,12.49,47.84626,-54.09684
2022-01-11 04:09:00+00:00,320.58799999999997,3.0,12.49,47.84626,-54.09684
2022-01-11 04:19:00+00:00,324.568,3.0,12.49,47.84626,-54.09684
2022-01-11 04:29:00+00:00,323.9246,3.0,12.49,47.84626,-54.09684
2022-01-11 04:39:00+00:00,336.3514,3.0,12.49,47.84626,-54.09684
2022-01-11 04:49:00+00:00,345.1813,3.0,12.49,47.84626,-54.09684
2022-01-11 04:59:00+00:00,344.7063,3.0,12.49,47.84626,-54.09684
2022-01-11 05:09:00+00:00,345.7963,2.99,12.49,47.84626,-54.09684
2022-01-11 05:19:00+00:00,348.1046,2.99,12.49,47.84626,-54.09684
2022-01-11 05:29:00+00:00,352.2446,3.0,12.49,47.84626,-54.09684
2022-01-11 05:39:00+00:00,348.4146,3.0,12.49,47.84626,-54.09684
2022-01-11 05:49:00+00:00,348.6697,3.0,12.49,47.84626,-54.09684
2022-01-11 05:59:00+00:00,352.6663,3.0,12.49,47.84626,-54.09684
2022-01-11 06:09:00+00:00,350.0229,3.01,12.49,47.84626,-54.09684
2022-01-11 06:19:00+00:00,348.2697,3.1,12.49,47.84626,-54.09684
2022-01-11 06:29:00+00:00,351.4746,3.17,12.49,47.84626,-54.09684
2022-01-11 06:39:00+00:00,350.1813,3.1,12.49,47.84626,-54.09684
2022-01-11 06:49:00+00:00,348.273,3.1,12.49,47.84626,-54.09684
2022-01-11 06:59:00+00:00,350.43800000000016,3.1,12.49,47.84626,-54.09684
2022-01-11 07:09:00+00:00,353.7445,3.1,12.49,47.84626,-54.09684
2022-01-11 07:19:00+00:00,353.9946,3.1,12.41,47.84626,-54.09684
2022-01-11 07:29:00+00:00,353.7879,3.1,12.41,47.84626,-54.09684
2022-01-11 07:39:00+00:00,359.0696,3.1,12.41,47.84626,-54.09684
2022-01-11 07:49:00+00:00,355.468,3.09,12.41,47.84626,-54.09684
2022-01-11 07:59:00+00:00,352.8096,3.07,12.41,47.84626,-54.09684
2022-01-11 08:09:00+00:00,355.8013,3.07,12.41,47.84626,-54.09684
2022-01-11 08:19:01+00:00,349.9846,3.08,12.41,47.84626,-54.09684
2022-01-11 08:29:01+00:00,339.458,3.07,12.41,47.84626,-54.09684
2022-01-11 08:39:01+00:00,334.398,3.07,12.41,47.84626,-54.09684
2022-01-11 08:49:01+00:00,337.2579,3.1,12.41,47.84626,-54.09684
2022-01-11 08:59:01+00:00,326.6246,3.1,12.41,47.84626,-54.09684
2022-01-11 09:09:01+00:00,314.4464,3.1,12.41,47.84626,-54.09684
2022-01-11 09:19:00+00:00,311.6414,3.1,12.41,47.84626,-54.09684
2022-01-11 09:29:00+00:00,309.3413,3.1,12.41,47.84626,-54.09684
2022-01-11 09:39:00+00:00,300.9797,3.1,12.41,47.84626,-54.09684
2022-01-11 09:49:00+00:00,293.5847,3.12,12.41,47.84626,-54.09684
2022-01-11 09:59:00+00:00,292.1097,3.1,12.41,47.84626,-54.09684
2022-01-11 10:09:00+00:00,283.7197,3.1,12.41,47.84626,-54.09684
2022-01-11 10:19:00+00:00,272.8931,3.1,12.41,47.84626,-54.09684
2022-01-11 10:29:00+00:00,275.953,3.0,12.41,47.84626,-54.09684
2022-01-11 10:39:00+00:00,273.3264,2.7,12.41,47.84626,-54.09684
2022-01-11 10:49:00+00:00,264.6514,2.48,12.41,47.84626,-54.09684
2022-01-11 10:59:00+00:00,258.7814,2.4,12.41,47.84626,-54.09684
2022-01-11 11:09:00+00:00,261.1648,2.4,12.41,47.84626,-54.09684
2022-01-11 11:19:01+00:00,257.7131,2.49,12.41,47.84626,-54.09684
2022-01-11 11:29:01+00:00,257.6614,2.4,12.41,47.84626,-54.09684
2022-01-11 11:39:01+00:00,253.9514,2.4,12.41,47.84626,-54.09684
2022-01-11 11:49:01+00:00,246.2564,2.4,12.41,47.84626,-54.09684
2022-01-11 11:59:01+00:00,243.1814,2.57,12.41,47.84626,-54.09684
2022-01-11 12:09:01+00:00,248.0115,2.65,12.41,47.84626,-54.09684
2022-01-11 12:19:00+00:00,246.9964,2.6,12.49,47.84626,-54.09684
2022-01-11 12:29:00+00:00,240.4981,2.4,12.49,47.84626,-54.09684
2022-01-11 12:39:00+00:00,239.8831,2.41,12.49,47.84626,-54.09684
2022-01-11 12:49:00+00:00,244.3214,2.59,12.49,47.84626,-54.09684
2022-01-11 12:59:00+00:00,246.0064,2.68,12.49,47.84626,-54.09684
2022-01-11 13:09:00+00:00,243.0814,2.57,12.49,47.84626,-54.09684
2022-01-11 13:19:00+00:00,243.9998,2.5,13.84,47.84626,-54.09684
2022-01-11 13:29:00+00:00,247.1098,2.65,13.84,47.84626,-54.09684
2022-01-11 13:39:00+00:00,247.5497,2.8,13.84,47.84626,-54.09684
2022-01-11 13:49:00+00:00,249.9147,2.89,13.84,47.84626,-54.09684
2022-01-11 13:59:00+00:00,259.2831,2.9,13.84,47.84626,-54.09684
2022-01-11 14:09:00+00:00,262.3914,2.9,13.84,47.84626,-54.09684
2022-01-11 14:19:00+00:00,259.1897,2.9,14.0,47.84626,-54.09684
2022-01-11 14:29:00+00:00,262.6097,2.9,14.0,47.84626,-54.09684
2022-01-11 14:39:00+00:00,269.753,2.94,14.0,47.84626,-54.09684
2022-01-11 14:49:00+00:00,266.9297,3.01,14.0,47.84626,-54.09684
2022-01-11 14:59:00+00:00,262.088,3.0,14.0,47.84626,-54.09684
2022-01-11 15:09:00+00:00,265.8131,2.93,14.0,47.84626,-54.09684
2022-01-11 15:19:01+00:00,271.6464,2.98,14.88,47.84626,-54.09684
2022-01-11 15:29:01+00:00,270.4531,3.08,14.88,47.84626,-54.09684
2022-01-11 15:39:01+00:00,270.5314,3.1,14.88,47.84626,-54.09684
2022-01-11 15:49:01+00:00,275.3214,3.1,14.88,47.84626,-54.09684
2022-01-11 15:59:01+00:00,282.9398,3.14,14.88,47.84626,-54.09684
2022-01-11 16:09:01+00:00,287.1946,3.12,14.88,47.84626,-54.09684
2022-01-11 16:19:01+00:00,288.4064,3.15,14.88,47.84626,-54.09684
2022-01-11 16:29:01+00:00,291.138,3.2,14.88,47.84626,-54.09684
2022-01-11 16:39:01+00:00,298.5247,3.2,14.88,47.84626,-54.09684
2022-01-11 16:49:01+00:00,304.1064,3.2,14.88,47.84626,-54.09684
2022-01-11 16:59:01+00:00,310.1896,3.26,14.88,47.84626,-54.09684
2022-01-11 17:09:01+00:00,311.6263,3.34,14.88,47.84626,-54.09684
2022-01-11 17:19:00+00:00,312.8513,3.3,14.48,47.84626,-54.09684
2022-01-11 17:29:00+00:00,314.4864,3.2,14.48,47.84626,-54.09684
2022-01-11 17:39:00+00:00,315.7046,3.2,14.48,47.84626,-54.09684
2022-01-11 17:49:00+00:00,318.593,3.38,14.48,47.84626,-54.09684
2022-01-11 17:59:00+00:00,318.6046,3.4,14.48,47.84626,-54.09684
2022-01-11 18:09:00+00:00,319.5129,3.4,14.48,47.84626,-54.09684
2022-01-11 18:19:00+00:00,321.888,3.4,14.16,47.84626,-54.09684
2022-01-11 18:29:00+00:00,327.2697,3.4,14.16,47.84626,-54.09684
2022-01-11 18:39:00+00:00,329.2529,3.4,14.16,47.84626,-54.09684
2022-01-11 18:49:00+00:00,325.7097,3.4,14.16,47.84626,-54.09684
2022-01-11 18:59:00+00:00,322.6697,3.4,14.16,47.84626,-54.09684
2022-01-11 19:09:00+00:00,327.2681,3.4,14.16,47.84626,-54.09684
2022-01-11 19:19:00+00:00,332.9579,3.4,14.24,47.84626,-54.09684
2022-01-11 19:29:00+00:00,331.5246,3.41,14.24,47.84626,-54.09684
2022-01-11 19:39:00+00:00,330.3162,3.49,14.24,47.84626,-54.09684
2022-01-11 19:49:00+00:00,333.4663,3.46,14.24,47.84626,-54.09684
2022-01-11 19:59:00+00:00,331.918,3.4,14.24,47.84626,-54.09684
2022-01-11 20:09:00+00:00,327.043,3.4,14.24,47.84626,-54.09684
2022-01-11 20:19:00+00:00,326.2413,3.4,13.6,47.84626,-54.09684
2022-01-11 20:29:00+00:00,325.2897,3.41,13.6,47.84626,-54.09684
2022-01-11 20:39:00+00:00,321.2513,3.5,13.6,47.84626,-54.09684
2022-01-11 20:49:00+00:00,314.663,3.5,13.6,47.84626,-54.09684
2022-01-11 20:59:00+00:00,314.983,3.43,13.6,47.84626,-54.09684
2022-01-11 21:09:00+00:00,309.7513,3.4,13.6,47.84626,-54.09684
2022-01-11 21:19:00+00:00,304.7047,3.4,13.21,47.84626,-54.09684
2022-01-11 21:29:00+00:00,300.8897,3.4,13.21,47.84626,-54.09684
2022-01-11 21:39:00+00:00,297.2747,3.38,13.21,47.84626,-54.09684
2022-01-11 21:49:00+00:00,292.0514,3.3,13.21,47.84626,-54.09684
2022-01-11 21:59:00+00:00,294.2997,3.1,13.21,47.84626,-54.09684
2022-01-11 22:09:00+00:00,296.5563,3.1,13.21,47.84626,-54.09684
2022-01-11 22:19:00+00:00,289.9831,3.0,12.81,47.84626,-54.09684
2022-01-11 22:29:00+00:00,283.3363,2.9,12.81,47.84626,-54.09684
2022-01-11 22:39:00+00:00,285.0914,2.9,12.81,47.84626,-54.09684
2022-01-11 22:49:00+00:00,281.6064,2.85,12.81,47.84626,-54.09684
2022-01-11 22:59:00+00:00,270.0864,2.89,12.81,47.84626,-54.09684
2022-01-11 23:09:00+00:00,266.1064,2.89,12.81,47.84626,-54.09684
2022-01-11 23:19:00+00:00,265.6548,2.9,12.65,47.84626,-54.09684
2022-01-11 23:29:00+00:00,256.7831,2.89,12.65,47.84626,-54.09684
2022-01-11 23:39:00+00:00,246.7131,2.9,12.65,47.84626,-54.09684
2022-01-11 23:49:00+00:00,250.7548,2.9,12.65,47.84626,-54.09684
2022-01-11 23:59:00+00:00,257.2664,2.9,12.65,47.84626,-54.09684
